Погода в Ижеславле

Россия / Рязанская область     54°14′17″N   39°16′33″E
темп.,
°C
ветер,
м/с
пор.,
м/с
влажн.,
%
обл.,
%
осадки,
мм/ч
давл.,
гПа
погр.,
м
21 апреля, ср
ср2100:00+1всв51299100 3.3 1009400
03:00+2ссв51099100 7.4 1004556
06:00+1зсз22100100 4.4 100391
09:00+1юз24100100 6.8 1006135
12:00+3зюз4797100 0.1 1008545
15:00+4зюз4785100 0.1 1010829
18:00+4юз3793100 0.0 1012398
21:00+3ююз3693100 0.1 1014178
22 апреля, чт
чт2200:00+4ююз4892100 0.0 1014406
03:00+3юз3698100 0.9 1016380
06:00+2ююз37955 0.0 1017177
09:00+7юз59816 0.0 1018616
12:00+10ююз686792 0.0 10181302
15:00+10юз697896 0.1 1019964
18:00+11ююз597346 0.1 1018669
21:00+8ююв498741 0.1 1019151
23 апреля, пт
пт2300:00+7ю51185100 0.0 1018215
03:00+7ю4118577 0.0 1018215
06:00+8ю5138196 0.0 1018301
09:00+12ю6126672 0.0 1018532
12:00+16ююз794788 0.0 10172491
15:00+15ю695399 0.0 10161691
18:00+13ююв61162100 0.0 1015506
21:00+10юв512725 0.0 1015279
24 апреля, сб
сб2400:00+9юв5147866 0.0 1013289
03:00+8ююв5128045 0.0 1010299
06:00+7ююв51191100 0.3 1009266
09:00+11ююв71073100 0.6 10071080
12:00+12ю91470100 1.7 10051782
15:00+4зсз91293100 2.3 1007819
18:00+6зсз5116921 0.1 10081378
21:00+4юз410795 0.2 1009262
25 апреля, вс
вс2500:00+3зюз512795 0.0 1009326
03:00+2зюз511855 0.0 1009377
06:00+1юз5128788 0.0 1010492
09:00+4зюз7107238 0.0 10101066
12:00+7зюз81053100 0.6 10101948
15:00+8зюз71049100 0.8 10112101
18:00+7юз585920 0.4 10111250
21:00+4ююз49715 0.5 1012199